Regional Weather Roundup
Issued by NWS Portland, ME

Home | Current Version | Previous Version | Text Only | Print | Product List | Glossary On
Versions: 1 2 3 4 5 6 7 8 9 10 11 12 13 14 15 16 17 18 19 20 21 22 23 24 25 26 27 28 29 30 31 32 33 34 35 36 37 38 39 40 41 42 43 44 45 46 47 48 49 50
000
ASUS41 KGYX 161110
RWRGYX
WEATHER ROUNDUP FOR MAINE AND NEW HAMPSHIRE
NATIONAL WEATHER SERVICE GRAY ME
600 AM EST SAT DEC 16 2017

MEZ002-005-006-010-012-015-018-020-021-024-026-027-029-161200-
MAINE

CITY           SKY/WX    TMP DP  RH WIND       PRES   REMARKS
PORTLAND       PTCLDY    15  12  88 CALM      29.81R
SANFORD        CLEAR      3   0  87 W3        29.81R
BAR HARBOR     LGT SNOW  16  13  88 N5        29.78R FOG
WISCASSET      PTCLDY    11   9  92 CALM      29.82R
ROCKLAND       PTCLDY    17  12  80 NW3       29.78R
FRYEBURG       CLEAR      1  -1  91 CALM      29.78R
LEWISTONAUBURN CLEAR      5   1  83 CALM      29.79R
AUGUSTA        PTCLDY    14  11  87 W5        29.78R
WATERVILLE     MOCLDY    12   7  80 CALM      29.73R
BANGOR         CLOUDY    14  11  87 CALM      29.77R
GREENVILLE       N/A     12  10  92 NW5       29.64R
MILLINOCKET    CLOUDY     7   5  91 CALM      29.75R
HOULTON        LGT SNOW   7   4  87 CALM      29.73R FOG
PRESQUE ISLE   FLURRIES   7   3  84 N6        29.75R
FRENCHVILLE    CLOUDY     2  -2  83 NW10      29.70S WCI -14
CARIBOU        CLOUDY     6   0  76 N7        29.72R
$$

NHZ002-005-008-009-011-012-014-161200-
NEW HAMPSHIRE

CITY           SKY/WX    TMP DP  RH WIND       PRES   REMARKS
PORTSMOUTH     PTCLDY    18  11  73 W5        29.81R
ROCHESTER      PTCLDY    16  10  77 VRB5      29.79R
NASHUA         CLEAR     13  11  92 CALM      29.84R
MANCHESTER     PTCLDY    16  11  80 CALM      29.82R
CONCORD        PTCLDY     8   3  80 CALM      29.82R
LACONIA        CLEAR     10   7  87 SW5       29.80R
PLYMOUTH       MOCLDY     1  -2  88 CALM      29.81R
BERLIN         CLEAR     -6 -10  83 CALM      29.73R
WHITEFIELD     CLOUDY    -1  -6  79 CALM      29.74S
JAFFREY        PTCLDY    11   8  88 CALM      29.79R
KEENE          CLOUDY     9   7  92 CALM      29.84R
LEBANON        PTCLDY     4   1  88 CALM      29.80R
MT WASHINGTON  FOG       -2  -2 100 NW36        N/A  VSB 1/8 WCI -31
$$

VTZ005-007-008-161200-
VERMONT

CITY           SKY/WX    TMP DP  RH WIND       PRES   REMARKS
ST JOHNSBURY     N/A      4   3  96 MISG      29.78R
MONTPELIER     MOCLDY     7   6  96 CALM      29.76S
BURLINGTON     CLOUDY    20  13  74 S8        29.78R
$$

MAZ007-012-024-CTZ003-RIZ002-NYZ038-NYZ072-161200-
SOUTHERN NEW ENGLAND AND NY

CITY           SKY/WX    TMP DP  RH WIND       PRES   REMARKS
BOSTON         PTCLDY    23  16  74 W14       29.86R WCI  11
WORCESTER      CLEAR     15  11  83 W13       29.80R WCI   1
NANTUCKET      PTCLDY    25  22  88 W14       29.87R WCI  13
PROVIDENCE     CLEAR     20  16  84 W8        29.90R
HARTFORD       CLEAR     16  13  88 SW3       29.90R
ALBANY         PTCLDY    15  10  80 CALM      29.87R
NEW YORK CITY  PTCLDY    28  16  60 W15G24    29.99R WCI  16
$$

ANZ081-ANZ082-ANZ150-NHZ014-MEZ023>029-161200-
COASTAL MARINE OBSERVATIONS

STATION/POSITION TIME  TEMP    WIND        PRES    WAVE
                       AIR SEA DIR/SP/G            HT/PER
                 (UTC) (F)     (DEG/KT/KT) (MB)    (FT/S)
MOUNT DESERT ROC 1100   24     340/ 18/ 20 1007.3R
MATINICUS ROCK   1000   25     340/ 11/ 15 1006.5F
ISLE OF SHOALS   1000   23     290/ 16/ 18 1009.0R
JEFFREYS LEDGE   1006      48                N/A     4/ 4
GEORGES BANK BUO 0950   40 50              1004.3    5/ 8
$$

.............KEY..............
   WCI - WIND CHILL
   TC  - TEMPERATURE IN CELSIUS
   VSB - VISIBILITY IN MILES
   HX  - HEAT INDEX
   FAIR- INDICATES FEW OR NO CLOUDS BELOW 12,000 FT, WITH NO
         SIGNIFICANT WEATHER AND/OR OBSTRUCTIONS TO VISIBILITY.





USA.gov is the U.S. government's official web portal to all federal, state and local government web resources and services.